Weather History for KUOX - June, 2014

Change the Weather History Date:

Monday, June 9, 2014

  Actual Average Record
Temperature  
Mean Temperature 74 °F -  
Max Temperature 82 °F 86 °F 97 °F (1953)
Min Temperature 66 °F 63 °F 47 °F (1983)
Cooling Degree Days 9    
Growing Degree Days 24 (Base 50)    
Moisture  
Dew Point 67 °F    
Average Humidity 92    
Maximum Humidity 100    
Minimum Humidity 62    
Precipitation  
Precipitation 2.10 in - - ()
Sea Level Pressure  
Sea Level Pressure 29.87 in    
Wind  
Wind Speed 4 mph (SSW)    
Max Wind Speed 22 mph    
Max Gust Speed 30 mph    
Visibility 7 miles    
Events Rain , Thunderstorm    
Averages and records for this station are not official NWS values.
T = Trace of Precipitation, MM = Missing Value Source: NWS Daily Summary

Daily Weather History Graph

Daily Weather History Graph

Search for Another Location

Airport or City:

Trip Planner

Search our weather history database for the weather conditions in past years. The results will help you decide how hot, cold, wet, or windy it might be!

Date:

Astronomy

Jun. 09, 2014 Rise Set
Actual Time 5:45 AM CDT 8:09 PM CDT
Civil Twilight 5:16 AM CDT 8:38 PM CDT
Nautical Twilight 4:40 AM CDT 9:14 PM CDT
Astronomical Twilight 4:00 AM CDT 9:54 PM CDT
Moon 4:38 PM CDT (6/9) 3:03 AM CDT (6/9)
Length of Visible Light 15h 22m
Length of Day
14h 24m
Waxing Gibbous, 85% of the Moon is Illuminated
Jun 9
Waxing Gibbous
Jun 12
Full
Jun 19
Last Quarter
Jun 27
New
Jul 5
First Quarter

Hourly Weather History & Observations

Time (CDT) Temp. Heat Index Dew Point Humidity Pressure Visibility Wind Dir Wind Speed Gust Speed Precip Events Conditions
12:15 AM 71.6 °F - 68.0 °F 88% 29.87 in 7.0 mi SE 3.5 mph - N/A Rain Light Rain
12:35 AM 71.6 °F - 68.0 °F 88% 29.86 in 9.0 mi Calm Calm - N/A Rain , Thunderstorm Light Rain
12:55 AM 73.4 °F - 68.0 °F 83% 29.86 in 10.0 mi South 3.5 mph - 0.01 in Thunderstorm Scattered Clouds
1:15 AM 73.4 °F - 68.0 °F 83% 29.86 in 10.0 mi Calm Calm - N/A Rain , Thunderstorm Light Rain
1:35 AM 73.4 °F - 68.0 °F 83% 29.86 in 10.0 mi Calm Calm - N/A Thunderstorm Mostly Cloudy
1:55 AM 73.4 °F - 69.8 °F 88% 29.92 in 5.0 mi NW 21.9 mph 29.9 mph N/A Rain , Thunderstorm Light Rain
2:15 AM 66.2 °F - 64.4 °F 94% 29.90 in 1.5 mi West 13.8 mph 21.9 mph 0.25 in Rain , Thunderstorm Heavy Rain
2:35 AM 66.2 °F - 64.4 °F 94% 29.90 in 1.2 mi West 9.2 mph 17.3 mph 0.52 in Rain Heavy Rain
2:55 AM 66.2 °F - 66.2 °F 100% 29.89 in 3.0 mi SW 8.1 mph - 0.62 in Rain , Thunderstorm Light Rain
3:15 AM 66.2 °F - 66.2 °F 100% 29.89 in 4.0 mi WSW 3.5 mph - 0.03 in Rain Light Rain
3:35 AM 66.2 °F - 66.2 °F 100% 29.88 in 3.0 mi SSW 5.8 mph - 0.08 in Rain , Thunderstorm Light Rain
3:55 AM 66.2 °F - 66.2 °F 100% 29.88 in 3.0 mi SW 8.1 mph - 0.11 in Rain Light Rain
4:15 AM 66.2 °F - 66.2 °F 100% 29.89 in 4.0 mi SSW 3.5 mph - 0.02 in Rain , Thunderstorm Light Rain
4:35 AM 66.2 °F - 66.2 °F 100% 29.88 in 9.0 mi Calm Calm - 0.03 in Rain Light Rain
4:55 AM 66.2 °F - 66.2 °F 100% 29.88 in 10.0 mi Calm Calm - 0.03 in   Mostly Cloudy
5:15 AM 66.2 °F - 66.2 °F 100% 29.88 in 10.0 mi Calm Calm - N/A   Mostly Cloudy
5:35 AM 66.2 °F - 66.2 °F 100% 29.88 in 10.0 mi Calm Calm - N/A Thunderstorm Overcast
5:55 AM 66.2 °F - 66.2 °F 100% 29.88 in 9.0 mi Calm Calm - N/A Rain , Thunderstorm Light Rain
6:15 AM 66.2 °F - 66.2 °F 100% 29.90 in 3.0 mi Calm Calm - 0.04 in Rain Light Rain
6:35 AM 66.2 °F - 66.2 °F 100% 29.90 in 3.0 mi Calm Calm - 0.06 in Rain , Thunderstorm Light Thunderstorms and Rain
6:55 AM 66.2 °F - 66.2 °F 100% 29.90 in 3.0 mi Calm Calm - 0.09 in Rain Light Rain
7:15 AM 66.2 °F - 66.2 °F 100% 29.91 in 2.5 mi Calm Calm - 0.03 in Rain , Thunderstorm Light Rain
7:35 AM 66.2 °F - 66.2 °F 100% 29.92 in 4.0 mi SSW 4.6 mph - 0.06 in Rain Light Rain
7:55 AM 66.2 °F - 66.2 °F 100% 29.91 in 2.5 mi South 4.6 mph - 0.07 in Rain Light Rain
8:15 AM 66.2 °F - 66.2 °F 100% 29.90 in 2.5 mi SSW 4.6 mph - 0.02 in Rain , Thunderstorm Light Thunderstorms and Rain
8:35 AM 66.2 °F - 66.2 °F 100% 29.93 in 3.0 mi SSW 5.8 mph - 0.05 in Rain Light Rain
8:55 AM 66.2 °F - 66.2 °F 100% 29.94 in 1.5 mi SSW 6.9 mph - 0.11 in Rain Rain
9:15 AM 66.2 °F - 66.2 °F 100% 29.94 in 2.0 mi SSW 5.8 mph - 0.04 in Rain Rain
9:35 AM 66.2 °F - 66.2 °F 100% 29.95 in 1.8 mi SSW 6.9 mph - 0.11 in Rain Rain
9:55 AM 66.2 °F - 66.2 °F 100% 29.94 in 5.0 mi SSW 5.8 mph - 0.13 in Rain Light Rain
10:15 AM 68.0 °F - 66.2 °F 94% 29.93 in 7.0 mi SSW 6.9 mph - N/A Rain Light Rain
10:35 AM 68.0 °F - 66.2 °F 94% 29.92 in 9.0 mi SW 4.6 mph - N/A Rain Light Rain
10:55 AM 68.0 °F - 68.0 °F 100% 29.91 in 8.0 mi South 3.5 mph - N/A Rain Light Rain
11:35 AM 71.6 °F - 68.0 °F 88% 29.89 in 10.0 mi South 4.6 mph - N/A Rain Light Rain
11:55 AM 73.4 °F - 68.0 °F 83% 29.89 in 9.0 mi SW 4.6 mph - N/A   Clear
12:15 PM 75.2 °F - 68.0 °F 78% 29.89 in 10.0 mi SSW 6.9 mph - N/A   Partly Cloudy
12:35 PM 77.0 °F - 69.8 °F 78% 29.88 in 10.0 mi SSW 9.2 mph - N/A   Partly Cloudy
1:15 PM 80.6 °F 84.6 °F 71.6 °F 74% 29.86 in 10.0 mi South 10.4 mph 24.2 mph N/A   Mostly Cloudy
1:35 PM 80.6 °F 83.9 °F 69.8 °F 70% 29.85 in 9.0 mi SSW 8.1 mph 16.1 mph N/A   Scattered Clouds
2:35 PM 82.4 °F 85.4 °F 68.0 °F 62% 29.84 in 10.0 mi South 6.9 mph - N/A   Scattered Clouds
2:55 PM 82.4 °F 85.4 °F 68.0 °F 62% 29.83 in 10.0 mi South 3.5 mph 16.1 mph N/A   Scattered Clouds
3:15 PM 82.4 °F 85.4 °F 68.0 °F 62% 29.82 in 10.0 mi SSW 10.4 mph - N/A   Scattered Clouds
3:35 PM 82.4 °F 85.4 °F 68.0 °F 62% 29.82 in 10.0 mi SSW 8.1 mph - N/A   Partly Cloudy
3:55 PM 80.6 °F 83.2 °F 68.0 °F 65% 29.82 in 10.0 mi South 3.5 mph - N/A   Clear
4:15 PM 80.6 °F 83.9 °F 69.8 °F 70% 29.82 in 10.0 mi Calm Calm - N/A   Clear
4:35 PM 77.0 °F - 71.6 °F 83% 29.80 in 10.0 mi Calm Calm - N/A   Clear
4:55 PM 77.0 °F - 71.6 °F 83% 29.81 in 10.0 mi Calm Calm - N/A Thunderstorm Clear
5:15 PM 77.0 °F - 69.8 °F 78% 29.79 in 8.0 mi North 4.6 mph - N/A Rain , Thunderstorm Light Thunderstorms and Rain
5:35 PM 69.8 °F - 66.2 °F 88% 29.83 in 5.0 mi WSW 8.1 mph 25.3 mph 0.12 in Rain , Thunderstorm Light Thunderstorms and Rain
5:55 PM 68.0 °F - 66.2 °F 94% 29.86 in 0.8 mi WNW 15.0 mph 20.7 mph 0.36 in Rain , Thunderstorm Rain
6:15 PM 66.2 °F - 66.2 °F 100% 29.85 in 0.2 mi West 8.1 mph 16.1 mph 0.44 in Rain , Thunderstorm Heavy Thunderstorms and Rain
6:35 PM 66.2 °F - 66.2 °F 100% 29.86 in 3.0 mi SSW 5.8 mph - 0.49 in Rain , Thunderstorm Light Rain
6:55 PM 66.2 °F - 66.2 °F 100% 29.82 in 2.5 mi Calm Calm - 0.54 in Rain , Thunderstorm Light Rain
7:15 PM 66.2 °F - 66.2 °F 100% 29.84 in 3.0 mi South 3.5 mph - 0.01 in Rain Light Rain
7:35 PM 66.2 °F - 66.2 °F 100% 29.84 in 5.0 mi Calm Calm - 0.02 in Rain , Thunderstorm Light Rain
7:55 PM 66.2 °F - 66.2 °F 100% 29.84 in 8.0 mi South 3.5 mph - 0.03 in Rain Light Rain
8:15 PM 66.2 °F - 66.2 °F 100% 29.82 in 9.0 mi SSE 3.5 mph - N/A Rain Light Rain
8:35 PM 66.2 °F - 66.2 °F 100% 29.81 in 10.0 mi Calm Calm - N/A   Clear
8:55 PM 66.2 °F - 66.2 °F 100% 29.82 in 10.0 mi Calm Calm - N/A   Clear
9:15 PM 66.2 °F - 66.2 °F 100% 29.84 in 10.0 mi South 4.6 mph - N/A   Mostly Cloudy
9:35 PM 66.2 °F - 66.2 °F 100% 29.82 in 10.0 mi South 3.5 mph - N/A   Mostly Cloudy
9:55 PM 66.2 °F - 66.2 °F 100% 29.84 in 10.0 mi South 3.5 mph - N/A   Partly Cloudy
10:15 PM 66.2 °F - 64.4 °F 94% 29.84 in 10.0 mi Calm Calm - N/A   Partly Cloudy
10:35 PM 66.2 °F - 64.4 °F 94% 29.84 in 10.0 mi Calm Calm - N/A   Scattered Clouds
10:55 PM 66.2 °F - 64.4 °F 94% 29.84 in 10.0 mi Calm Calm - N/A   Mostly Cloudy
11:15 PM 66.2 °F - 64.4 °F 94% 29.85 in 10.0 mi SSW 4.6 mph - N/A   Scattered Clouds
11:35 PM 66.2 °F - 64.4 °F 94% 29.86 in 10.0 mi Calm Calm - N/A   Clear
11:55 PM 66.2 °F - 64.4 °F 94% 29.86 in 10.0 mi SSE 3.5 mph - N/A   Clear